Regional Weather Roundup
Issued by NWS Cleveland, OH

Home | Current Version | Previous Version | Text Only | Print | Product List | Glossary Off
Versions: 1 2 3 4 5 6 7 8 9 10 11 12 13 14 15 16 17 18 19 20 21 22 23 24 25 26 27 28 29 30 31 32 33 34 35 36 37 38 39 40 41 42 43 44 45 46 47 48 49 50

000
ASUS41 KCLE 241002
RWRCLE
OHIO REGIONAL WEATHER ROUNDUP
NATIONAL WEATHER SERVICE CLEVELAND, OH
600 AM EDT MON JUL 24 2017

NOTE: "FAIR" INDICATES FEW OR NO CLOUDS BELOW 12,000 FEET WITH NO
SIGNIFICANT WEATHER AND/OR OBSTRUCTIONS TO VISIBILITY.

OHZ001>008-015>018-024>027-034-035-043-044-241100-
   NORTHWEST OHIO

CITY           SKY/WX    TMP DP  RH WIND       PRES   REMARKS
DEFIANCE       MOCLDY   N/A N/A N/A NW8       29.86R
FINDLAY        CLEAR     68  64  87 W6        29.83R
TOLEDO EXPRESS PTCLDY    66  65  96 N8        29.84R
TOLEDO EXEC    PTCLDY    69  65  86 NW8       29.84R
LIMA           CLEAR     66  66 100 W3        29.85R
$$

OHZ009>014-019>023-028>033-038-089-241100-
   NORTHEAST OHIO

CITY           SKY/WX    TMP DP  RH WIND       PRES   REMARKS
CLE-HOPKINS    PTCLDY    68  65  90 SW6       29.82R
CLE-LAKEFRONT  MOCLDY    71  66  84 CALM      29.80R
CUY CO. ARPT   NOT AVBL
LORAIN-ELYRIA  PTCLDY    65  61  87 SW3       29.82R
ASHTABULA      MOCLDY    68  68 100 NW5       29.81R
AKRON-CANTON   PTCLDY    66  63  90 W5        29.83R
WOOSTER        MOCLDY    63  63 100 CALM      29.84R FOG
MANSFIELD      CLEAR     67  66  97 W7        29.84R
YOUNGSTOWN     PTCLDY    65  64  97 W6        29.82R
$$

OHZ042-051>053-060>062-070>072-077>081-241100-
  SOUTHWEST OHIO

CITY           SKY/WX    TMP DP  RH WIND       PRES   REMARKS
CINC-COVINGTON MOCLDY    70  70 100 SW5       29.88R
CINC-LUNKEN    PTCLDY    67  67 100 SW3       29.87R FOG
HAMILTON       CLEAR     70  69  97 W5        29.87R
DAYTON         PTCLDY    69  68  96 CALM      29.87R
WRIGHT-PAT AFB PTCLDY    68  68 100 CALM      29.85R
DAYTON GENERAL PTCLDY    69  67  93 S3        29.86R
WILMINGTON     CLEAR     67  67 100 S5        29.86R FOG
$$

OHZ036-037-039>041-045>050-054>059-063>069-073>076-082>088-241100-
  CENTRAL AND SOUTHEAST OHIO

CITY           SKY/WX    TMP DP  RH WIND       PRES   REMARKS
COLUMBUS       CLEAR     67  67 100 CALM      29.84R
OSU AIRPORT    CLEAR     66  66 100 CALM      29.84R
BOLTON FIELD   NOT AVBL
RICKENBACK AFB CLEAR     65  65 100 S3        29.84R
NEWARK         CLEAR     66  64  93 CALM      29.84R FOG
MARION         CLEAR     66  64  93 SW3       29.84R
LANCASTER      CLEAR     54  32  43 CALM      29.85R
ZANESVILLE     FOG       64  62  93 CALM      29.84S VSB 1/2
NEW PHILLY     NOT AVBL
$$




USA.gov is the U.S. government's official web portal to all federal, state and local government web resources and services.